Flag for Cyprus Weather past 2 weeks in Limassol, Cyprus

Now
63 °F

Passing clouds.


Feels Like: 63 °F
Forecast: 55 / 68 °F
Wind: 16 mph from West

Location: Akrotiri

Current Time: Apr 22, 2015 at 12:10:45 AM

Latest Report: Apr 21, 2015 at 10:50 PM


Visibility: N/A

Pressure: 29.83 "Hg

Humidity: 68%

Dew point: 52 °F

Location of LimassolLocation

Historic Weather in Limassol — Graph

°F

Limassol temperature yesterday

Maximum temperature yesterday: 70 °F (at 11:50 AM)
Minimum temperature yesterday: 63 °F (at 2:50 AM)
Average temperature yesterday: 65 °F

Past Weeks' High & Low Weather Summary

 TemperatureHumidityPressure
High73 °F (Apr 16, 12:50 PM)94% (Apr 7, 3:50 AM)30.21 "Hg (Apr 7, 3:50 AM)
Low46 °F (Apr 12, 2:50 AM)35% (Apr 15, 9:50 AM)29.53 "Hg (Apr 9, 3:50 AM)
Average61 °F68%29.95 "Hg
* Reported Apr 6 10:50 PM — Apr 21 10:50 PM, Limassol, Weather by CustomWeather, © 2015

Note: Actual official high and low records may vary slightly from our data, if they occured in-between our weather recording intervals... More about our weather records

Advertising

Limassol weather history for previous 24 hours

 ConditionsComfort  
Time TempWeatherWind HumidityBarometerVisibility
10:50 PM
Tue, Apr 21
63 °FPassing clouds.16 mph68%29.83 "HgN/A
9:50 PM63 °FPassing clouds.16 mph73%29.83 "HgN/A
8:50 PM63 °FPassing clouds.17 mph77%29.83 "HgN/A
7:50 PM63 °FPassing clouds.23 mph77%29.80 "HgN/A
6:50 PM64 °FPassing clouds.21 mph68%29.80 "HgN/A
5:50 PM64 °FPassing clouds.23 mph73%29.77 "HgN/A
4:50 PM66 °FPassing clouds.25 mph68%29.80 "HgN/A
3:50 PM66 °FPassing clouds.24 mph73%29.80 "HgN/A
2:50 PM66 °FPassing clouds.24 mph68%29.80 "HgN/A
1:50 PM68 °FPassing clouds.22 mph69%29.80 "HgN/A
12:50 PM70 °FPassing clouds.23 mph69%29.80 "HgN/A
11:50 AM70 °FPassing clouds.21 mph64%29.80 "HgN/A
10:50 AM68 °FPassing clouds.21 mph73%29.80 "HgN/A
9:50 AM66 °FPassing clouds.18 mph78%29.80 "HgN/A
8:50 AM66 °FPassing clouds.17 mph83%29.80 "HgN/A
7:50 AM64 °FPartly sunny.13 mph83%29.77 "HgN/A
6:50 AM63 °FPassing clouds.10 mph94%29.77 "HgN/A
5:50 AM63 °FPassing clouds.12 mph94%29.74 "HgN/A
4:50 AM63 °FClear.13 mph94%29.74 "Hg10 mi
3:50 AM63 °FClear.15 mph94%29.74 "Hg10 mi
2:50 AM63 °FClear.17 mph88%29.74 "Hg10 mi
1:50 AM64 °FClear.16 mph83%29.74 "Hg10 mi
12:50 AM64 °FClear.20 mph83%29.74 "Hg10 mi
Weather by CustomWeather, © 2015

See weather overviewHow to use our weather pages